Weather in Khabez

Russia / Karachay-Cherkess Republic     44°02′35″N   41°45′59″E
temp.,
°C
wind,
m/s
gust,
m/s
humid.,
%
clouds,
%
prec.,
mm/h
press.,
hPa
HPBL,
m
5 march, fri
fri500:00−7s23740 0.0 102221
03:00−7s44660 0.0 102237
06:00−6s44610 0.0 102138
09:00−2s34690 0.0 101981
12:00+2s11990 0.0 101826
15:00+3ene11980 0.0 101725
18:00−1ese00630 0.0 101922
21:00−2s44670 0.0 102137
6 march, sat
sat600:00−2s45610 0.0 102053
03:00−2s55601 0.0 102059
06:00−2s55592 0.0 101959
09:00+2s466417 0.0 101897
12:00+6ssw457391 0.0 101682
15:00+7wsw236794 0.0 101439
18:00+4sw4451100 0.0 101430
21:00+1ssw5861100 0.0 101699
7 march, sun
sun700:00−1nnw5889100 0.1 1019395
03:00−4wnw4895100 1.3 1021585
06:00−6nnw3595100 3.0 1023473
09:00−6nnw237397 3.8 1025435
12:00−5n225681 0.0 1025768
15:00−4n226144 0.0 1024621
18:00−7n22780 0.0 102523
21:00−8s11847 0.0 102621
8 march, mon
mon800:00−9wsw00840 0.0 102521
03:00−9sse11840 0.0 102422
06:00−10ese11830 0.0 102321
09:00−6ene11750 0.0 1021161
12:00−3nne22710 0.0 1019416
15:00−2nne22650 0.0 1018493
18:00−4n227430 0.0 101922
21:00−6sse118052 0.0 102021
9 march, tue
tue900:00−6se118182 0.0 102021
03:00−7sse117960 0.0 101921
06:00−7s227011 0.0 101922
09:00−3s126318 0.0 1017112
12:000n22600 0.0 1016354
15:00+1n22600 0.0 1015712
18:00−2nne127757 0.0 101621
21:00−3s237878 0.0 101836